SCRG

Rancagua de La Independencia Airport

Airport
ICAO code
SCRG
IATA Code
QRC
Summary
ICAO Region
CARSAM
ICAO Territory
Location

Rancagua, Libertador General Bernardo O'Higgins

Serving
Rancagua
Elevation
1446 ft
Coordinates
34° 10' 25" S , 70° 46' 32" W
KCC
Metar
Observation
SCRG 041600Z 18007KT 8000 NSC 26/14 Q1014
Station
DE LA INDEPENDEN
Date/Time
2023-02-04 16:00:00
Wind direction
180°
Wind speed
07 kts
Lowest cloud amount
nil significant cloud
Temperature
26°C
Dew point
14°C
Humidity
47%
QNH
1014 hPa
Weather condition
n/a

Civil/military airport located in Rancagua, Libertador General Bernado O'Higgins, Chile.

Climatology

Temperate mediterranean climate (Köppen climate classification Csb)

Runways

Designator Length Width Surface Rops
3/21 1650 23 ASP No/No

Airport map

Aerial View

SKYbrary Partners:

Safety knowledge contributed by: